TimeMDT,TemperatureF,Dew PointF,Humidity,Sea Level PressureIn,VisibilityMPH,Wind Direction,Wind SpeedMPH,Gust SpeedMPH,PrecipitationIn,Events,Conditions,WindDirDegrees,DateUTC
12:15 AM,60.8,33.8,36,29.93,10.0,West,9.2,-,N/A,,Clear,260,2012-10-22 06:15:00
12:35 AM,62.6,33.8,34,29.94,10.0,WSW,11.5,-,N/A,,Clear,240,2012-10-22 06:35:00
12:55 AM,60.8,33.8,36,29.95,10.0,SW,13.8,-,N/A,,Clear,230,2012-10-22 06:55:00
1:15 AM,60.8,33.8,36,29.95,10.0,WSW,15.0,-,N/A,,Clear,240,2012-10-22 07:15:00
1:35 AM,62.6,33.8,34,29.93,10.0,West,13.8,-,N/A,,Clear,260,2012-10-22 07:35:00
1:55 AM,64.4,35.6,34,29.94,10.0,WSW,10.4,-,N/A,,Clear,240,2012-10-22 07:55:00
2:15 AM,62.6,35.6,37,29.94,10.0,WSW,10.4,-,N/A,,Clear,250,2012-10-22 08:15:00
2:55 AM,64.4,37.4,37,29.93,10.0,West,11.5,-,N/A,,Clear,270,2012-10-22 08:55:00
3:15 AM,66.2,37.4,35,29.93,10.0,West,12.7,18.4,N/A,,Clear,270,2012-10-22 09:15:00
3:35 AM,64.4,37.4,37,29.95,10.0,SW,15.0,-,N/A,,Clear,230,2012-10-22 09:35:00
3:55 AM,66.2,37.4,35,29.95,10.0,WSW,26.5,34.5,N/A,,Scattered Clouds,240,2012-10-22 09:55:00
4:15 AM,66.2,39.2,37,29.93,10.0,SW,15.0,-,N/A,,Partly Cloudy,230,2012-10-22 10:15:00
4:35 AM,64.4,37.4,37,29.93,10.0,SW,17.3,21.9,N/A,,Partly Cloudy,230,2012-10-22 10:35:00
4:55 AM,64.4,37.4,37,29.92,10.0,WSW,11.5,-,N/A,,Partly Cloudy,240,2012-10-22 10:55:00
5:15 AM,62.6,35.6,37,29.92,10.0,SSW,12.7,-,N/A,,Clear,210,2012-10-22 11:15:00
5:35 AM,60.8,37.4,42,29.92,10.0,WSW,11.5,-,N/A,,Clear,250,2012-10-22 11:35:00
5:55 AM,60.8,35.6,39,29.93,10.0,West,11.5,-,N/A,,Clear,280,2012-10-22 11:55:00
6:15 AM,57.2,35.6,44,29.93,10.0,WSW,10.4,-,N/A,,Clear,250,2012-10-22 12:15:00
6:35 AM,55.4,35.6,47,29.93,10.0,WSW,10.4,-,N/A,,Clear,250,2012-10-22 12:35:00
6:55 AM,55.4,35.6,47,29.94,10.0,WSW,10.4,-,N/A,,Clear,240,2012-10-22 12:55:00
7:15 AM,57.2,37.4,48,29.95,10.0,WSW,11.5,-,N/A,,Clear,250,2012-10-22 13:15:00
7:35 AM,55.4,37.4,51,29.95,10.0,WSW,11.5,-,N/A,,Clear,240,2012-10-22 13:35:00
7:55 AM,57.2,37.4,48,29.96,10.0,WSW,12.7,-,N/A,,Clear,250,2012-10-22 13:55:00
8:15 AM,57.2,37.4,48,29.97,10.0,WSW,11.5,-,N/A,,Clear,240,2012-10-22 14:15:00
8:35 AM,60.8,39.2,45,29.98,10.0,WSW,12.7,-,N/A,,Clear,240,2012-10-22 14:35:00
8:55 AM,62.6,39.2,42,29.98,10.0,WSW,12.7,-,N/A,,Clear,240,2012-10-22 14:55:00
9:15 AM,66.2,41.0,40,29.98,10.0,WSW,15.0,-,N/A,,Clear,240,2012-10-22 15:15:00
9:35 AM,69.8,41.0,35,29.99,10.0,WSW,15.0,-,N/A,,Clear,240,2012-10-22 15:35:00
9:55 AM,71.6,39.2,31,29.99,10.0,WSW,18.4,23.0,N/A,,Clear,250,2012-10-22 15:55:00
10:15 AM,71.6,39.2,31,29.99,10.0,WSW,19.6,-,N/A,,Clear,240,2012-10-22 16:15:00
10:35 AM,73.4,39.2,29,29.99,10.0,WSW,20.7,25.3,N/A,,Clear,250,2012-10-22 16:35:00
10:55 AM,75.2,39.2,27,29.99,10.0,West,17.3,23.0,N/A,,Clear,260,2012-10-22 16:55:00
11:15 AM,75.2,37.4,25,29.99,10.0,WSW,18.4,24.2,N/A,,Clear,250,2012-10-22 17:15:00
11:35 AM,78.8,37.4,23,29.99,10.0,West,20.7,25.3,N/A,,Clear,260,2012-10-22 17:35:00
11:55 AM,78.8,35.6,21,29.98,10.0,West,18.4,24.2,N/A,,Clear,280,2012-10-22 17:55:00
12:15 PM,78.8,35.6,21,29.98,10.0,West,16.1,21.9,N/A,,Clear,270,2012-10-22 18:15:00
12:35 PM,78.8,33.8,20,29.97,10.0,West,16.1,23.0,N/A,,Clear,270,2012-10-22 18:35:00
12:55 PM,80.6,33.8,18,29.96,10.0,West,13.8,18.4,N/A,,Clear,260,2012-10-22 18:55:00
1:15 PM,80.6,33.8,18,29.95,10.0,West,18.4,23.0,N/A,,Clear,270,2012-10-22 19:15:00
1:35 PM,80.6,33.8,18,29.95,10.0,SW,19.6,24.2,N/A,,Clear,230,2012-10-22 19:35:00
1:55 PM,80.6,35.6,20,29.94,10.0,WSW,15.0,20.7,N/A,,Clear,250,2012-10-22 19:55:00
2:15 PM,80.6,35.6,20,29.93,10.0,SW,16.1,21.9,N/A,,Clear,230,2012-10-22 20:15:00
2:35 PM,80.6,33.8,18,29.93,10.0,SW,18.4,25.3,N/A,,Clear,230,2012-10-22 20:35:00
2:55 PM,80.6,35.6,20,29.93,10.0,SW,16.1,26.5,N/A,,Clear,230,2012-10-22 20:55:00
3:15 PM,80.6,35.6,20,29.92,10.0,SW,19.6,25.3,N/A,,Clear,230,2012-10-22 21:15:00
3:35 PM,80.6,35.6,20,29.92,10.0,SW,13.8,20.7,N/A,,Clear,220,2012-10-22 21:35:00
3:55 PM,80.6,35.6,20,29.92,10.0,SW,12.7,-,N/A,,Clear,220,2012-10-22 21:55:00
4:15 PM,80.6,35.6,20,29.91,10.0,SW,15.0,-,N/A,,Clear,230,2012-10-22 22:15:00
4:35 PM,80.6,35.6,20,29.92,10.0,South,15.0,-,N/A,,Clear,190,2012-10-22 22:35:00
4:55 PM,78.8,35.6,21,29.92,10.0,SW,15.0,-,N/A,,Clear,220,2012-10-22 22:55:00
5:15 PM,78.8,35.6,21,29.92,10.0,SW,15.0,-,N/A,,Clear,220,2012-10-22 23:15:00
5:35 PM,77.0,35.6,22,29.92,10.0,SSW,12.7,-,N/A,,Clear,200,2012-10-22 23:35:00
5:55 PM,75.2,33.8,22,29.92,10.0,SSW,13.8,-,N/A,,Clear,200,2012-10-22 23:55:00
6:15 PM,71.6,33.8,25,29.93,10.0,SSW,10.4,-,N/A,,Clear,200,2012-10-23 00:15:00
6:35 PM,69.8,33.8,27,29.93,10.0,SSW,10.4,-,N/A,,Clear,200,2012-10-23 00:35:00
6:55 PM,66.2,33.8,30,29.94,10.0,SSW,10.4,-,N/A,,Clear,200,2012-10-23 00:55:00
7:15 PM,66.2,33.8,30,29.95,10.0,SSW,10.4,-,N/A,,Clear,210,2012-10-23 01:15:00
7:55 PM,62.6,33.8,34,29.95,10.0,SW,10.4,-,N/A,,Clear,220,2012-10-23 01:55:00
8:15 PM,62.6,33.8,34,29.95,10.0,SW,11.5,-,N/A,,Clear,220,2012-10-23 02:15:00
8:35 PM,62.6,33.8,34,29.96,10.0,SW,11.5,-,N/A,,Clear,220,2012-10-23 02:35:00
8:55 PM,62.6,33.8,34,29.96,10.0,SW,10.4,-,N/A,,Clear,220,2012-10-23 02:55:00
9:15 PM,60.8,33.8,36,29.96,10.0,SW,12.7,-,N/A,,Clear,220,2012-10-23 03:15:00
9:35 PM,62.6,33.8,34,29.96,10.0,SW,11.5,-,N/A,,Clear,220,2012-10-23 03:35:00
9:55 PM,60.8,33.8,36,29.96,10.0,SW,12.7,-,N/A,,Clear,220,2012-10-23 03:55:00
10:15 PM,60.8,33.8,36,29.96,10.0,SW,12.7,-,N/A,,Clear,220,2012-10-23 04:15:00
10:35 PM,60.8,33.8,36,29.96,10.0,SW,12.7,-,N/A,,Clear,230,2012-10-23 04:35:00
10:55 PM,59.0,33.8,39,29.96,10.0,SW,11.5,-,N/A,,Clear,230,2012-10-23 04:55:00
11:15 PM,57.2,33.8,41,29.96,10.0,WSW,10.4,-,N/A,,Clear,240,2012-10-23 05:15:00
11:35 PM,55.4,33.8,44,29.96,10.0,WSW,10.4,-,N/A,,Clear,240,2012-10-23 05:35:00
11:55 PM,55.4,33.8,44,29.96,10.0,WSW,10.4,-,N/A,,Clear,240,2012-10-23 05:55:00